{"data":{"norad_id":63697,"epoch":"2026-05-25T05:30:18.363744Z","epoch_age_seconds":58429,"freshness":"FRESH","line1":"1 63697U 25087A   26145.22937921  .00032815  00000+0  97759-3 0  9994","line2":"2 63697  53.1574 222.9454 0001111  76.2746 283.8380 15.34416143 60934","mean_motion":15.34416143,"eccentricity":0.0001111,"inclination_deg":53.1574,"raan_deg":222.9454,"arg_perigee_deg":76.2746,"mean_anomaly_deg":283.838,"bstar":0.00097759,"rev_number":6093,"period_min":93.846770745294,"perigee_km":461.89524820966,"apogee_km":463.41527224989,"semimajor_km":6840.7922602298,"source":"CELESTRAK","updated_at":"2026-05-25T13:38:20.095512Z"}}